[{"OBJECT_NAME":"HULIANWANG DIGUI-139","OBJECT_ID":"2026-007C","EPOCH":"2026-09-12T01:42:49.312512","MEAN_MOTION":13.29330149,"ECCENTRICITY":0.00002811,"INCLINATION":50.002,"RA_OF_ASC_NODE":134.237,"ARG_OF_PERICENTER":334.1544,"MEAN_ANOMALY":25.9314,"EPHEMERIS_TYPE":0,"CLASSIFICATION_TYPE":"U","NORAD_CAT_ID":67437,"ELEMENT_SET_NO":999,"REV_AT_EPOCH":3234,"BSTAR":0.00010075074,"MEAN_MOTION_DOT":-7.7e-7,"MEAN_MOTION_DDOT":0},{"OBJECT_NAME":"HULIANWANG DIGUI-140","OBJECT_ID":"2026-007D","EPOCH":"2026-09-12T02:07:10.930944","MEAN_MOTION":13.29329443,"ECCENTRICITY":0.00004402,"INCLINATION":50.0046,"RA_OF_ASC_NODE":134.3733,"ARG_OF_PERICENTER":353.9457,"MEAN_ANOMALY":6.141,"EPHEMERIS_TYPE":0,"CLASSIFICATION_TYPE":"U","NORAD_CAT_ID":67438,"ELEMENT_SET_NO":999,"REV_AT_EPOCH":3234,"BSTAR":0.00010909132,"MEAN_MOTION_DOT":-7.3e-7,"MEAN_MOTION_DDOT":0},{"OBJECT_NAME":"HULIANWANG DIGUI-141","OBJECT_ID":"2026-007E","EPOCH":"2026-09-12T01:18:57.801888","MEAN_MOTION":13.29330206,"ECCENTRICITY":0.00004408,"INCLINATION":50.0036,"RA_OF_ASC_NODE":134.184,"ARG_OF_PERICENTER":350.9284,"MEAN_ANOMALY":9.158,"EPHEMERIS_TYPE":0,"CLASSIFICATION_TYPE":"U","NORAD_CAT_ID":67439,"ELEMENT_SET_NO":999,"REV_AT_EPOCH":3234,"BSTAR":0.000095374686,"MEAN_MOTION_DOT":-8e-7,"MEAN_MOTION_DDOT":0},{"OBJECT_NAME":"HULIANWANG DIGUI-142","OBJECT_ID":"2026-007F","EPOCH":"2026-09-12T01:07:01.272864","MEAN_MOTION":13.2933006,"ECCENTRICITY":0.00004493,"INCLINATION":50.0113,"RA_OF_ASC_NODE":134.2906,"ARG_OF_PERICENTER":351.6362,"MEAN_ANOMALY":8.4502,"EPHEMERIS_TYPE":0,"CLASSIFICATION_TYPE":"U","NORAD_CAT_ID":67440,"ELEMENT_SET_NO":999,"REV_AT_EPOCH":3234,"BSTAR":0.00010146901,"MEAN_MOTION_DOT":-7.7e-7,"MEAN_MOTION_DDOT":0},{"OBJECT_NAME":"HULIANWANG DIGUI-143","OBJECT_ID":"2026-007G","EPOCH":"2026-09-12T00:55:09.393888","MEAN_MOTION":13.29328278,"ECCENTRICITY":0.00004435,"INCLINATION":50.0093,"RA_OF_ASC_NODE":134.2097,"ARG_OF_PERICENTER":11.4603,"MEAN_ANOMALY":348.6279,"EPHEMERIS_TYPE":0,"CLASSIFICATION_TYPE":"U","NORAD_CAT_ID":67441,"ELEMENT_SET_NO":999,"REV_AT_EPOCH":3234,"BSTAR":0.000099144282,"MEAN_MOTION_DOT":-7.8e-7,"MEAN_MOTION_DDOT":0},{"OBJECT_NAME":"HULIANWANG DIGUI-144","OBJECT_ID":"2026-007H","EPOCH":"2026-09-11T22:54:26.253792","MEAN_MOTION":13.29329622,"ECCENTRICITY":0.00004969,"INCLINATION":50.0083,"RA_OF_ASC_NODE":134.4144,"ARG_OF_PERICENTER":354.3421,"MEAN_ANOMALY":5.7446,"EPHEMERIS_TYPE":0,"CLASSIFICATION_TYPE":"U","NORAD_CAT_ID":67442,"ELEMENT_SET_NO":999,"REV_AT_EPOCH":3233,"BSTAR":0.00009136783,"MEAN_MOTION_DOT":-8.2e-7,"MEAN_MOTION_DDOT":0},{"OBJECT_NAME":"HULIANWANG DIGUI-145","OBJECT_ID":"2026-007J","EPOCH":"2026-09-12T02:19:17.881536","MEAN_MOTION":13.29329284,"ECCENTRICITY":0.00004342,"INCLINATION":50.0085,"RA_OF_ASC_NODE":133.8401,"ARG_OF_PERICENTER":357.6963,"MEAN_ANOMALY":2.3907,"EPHEMERIS_TYPE":0,"CLASSIFICATION_TYPE":"U","NORAD_CAT_ID":67443,"ELEMENT_SET_NO":999,"REV_AT_EPOCH":3235,"BSTAR":0.00011061501,"MEAN_MOTION_DOT":-7.3e-7,"MEAN_MOTION_DDOT":0},{"OBJECT_NAME":"HULIANWANG DIGUI-146","OBJECT_ID":"2026-013A","EPOCH":"2026-09-12T03:23:50.250912","MEAN_MOTION":13.29328932,"ECCENTRICITY":0.00009089,"INCLINATION":50.0087,"RA_OF_ASC_NODE":44.0563,"ARG_OF_PERICENTER":74.8965,"MEAN_ANOMALY":285.2008,"EPHEMERIS_TYPE":0,"CLASSIFICATION_TYPE":"U","NORAD_CAT_ID":67522,"ELEMENT_SET_NO":999,"REV_AT_EPOCH":3161,"BSTAR":0.00002725397,"MEAN_MOTION_DOT":-0.00000111,"MEAN_MOTION_DDOT":0},{"OBJECT_NAME":"HULIANWANG DIGUI-147","OBJECT_ID":"2026-013B","EPOCH":"2026-09-11T16:21:54.774144","MEAN_MOTION":13.29330764,"ECCENTRICITY":0.00008526,"INCLINATION":50.0057,"RA_OF_ASC_NODE":45.5686,"ARG_OF_PERICENTER":77.3384,"MEAN_ANOMALY":282.7583,"EPHEMERIS_TYPE":0,"CLASSIFICATION_TYPE":"U","NORAD_CAT_ID":67523,"ELEMENT_SET_NO":999,"REV_AT_EPOCH":3155,"BSTAR":0.00003985426,"MEAN_MOTION_DOT":-0.00000106,"MEAN_MOTION_DDOT":0},{"OBJECT_NAME":"HULIANWANG DIGUI-148","OBJECT_ID":"2026-013C","EPOCH":"2026-09-11T16:09:53.293536","MEAN_MOTION":13.29330504,"ECCENTRICITY":0.00008751,"INCLINATION":50.0098,"RA_OF_ASC_NODE":45.6052,"ARG_OF_PERICENTER":75.1263,"MEAN_ANOMALY":284.9706,"EPHEMERIS_TYPE":0,"CLASSIFICATION_TYPE":"U","NORAD_CAT_ID":67524,"ELEMENT_SET_NO":999,"REV_AT_EPOCH":3155,"BSTAR":0.000031950667,"MEAN_MOTION_DOT":-0.00000109,"MEAN_MOTION_DDOT":0},{"OBJECT_NAME":"HULIANWANG DIGUI-149","OBJECT_ID":"2026-013D","EPOCH":"2026-09-11T15:58:01.627968","MEAN_MOTION":13.29329063,"ECCENTRICITY":0.0001051,"INCLINATION":50.0091,"RA_OF_ASC_NODE":45.551,"ARG_OF_PERICENTER":69.2584,"MEAN_ANOMALY":290.8401,"EPHEMERIS_TYPE":0,"CLASSIFICATION_TYPE":"U","NORAD_CAT_ID":67525,"ELEMENT_SET_NO":999,"REV_AT_EPOCH":3155,"BSTAR":0.000029810576,"MEAN_MOTION_DOT":-0.0000011,"MEAN_MOTION_DDOT":0},{"OBJECT_NAME":"HULIANWANG DIGUI-150","OBJECT_ID":"2026-013E","EPOCH":"2026-09-11T19:10:41.232576","MEAN_MOTION":13.2932791,"ECCENTRICITY":0.00008923,"INCLINATION":50.0053,"RA_OF_ASC_NODE":44.8506,"ARG_OF_PERICENTER":75.858,"MEAN_ANOMALY":284.2391,"EPHEMERIS_TYPE":0,"CLASSIFICATION_TYPE":"U","NORAD_CAT_ID":67526,"ELEMENT_SET_NO":999,"REV_AT_EPOCH":3159,"BSTAR":0.000025813254,"MEAN_MOTION_DOT":-0.00000112,"MEAN_MOTION_DDOT":0},{"OBJECT_NAME":"HULIANWANG DIGUI-151","OBJECT_ID":"2026-013F","EPOCH":"2026-09-12T02:35:35.739456","MEAN_MOTION":13.29329891,"ECCENTRICITY":0.00008536,"INCLINATION":50.0098,"RA_OF_ASC_NODE":43.9004,"ARG_OF_PERICENTER":78.8568,"MEAN_ANOMALY":281.24,"EPHEMERIS_TYPE":0,"CLASSIFICATION_TYPE":"U","NORAD_CAT_ID":67527,"ELEMENT_SET_NO":999,"REV_AT_EPOCH":3161,"BSTAR":0.000039432887,"MEAN_MOTION_DOT":-0.00000106,"MEAN_MOTION_DDOT":0},{"OBJECT_NAME":"HULIANWANG DIGUI-152","OBJECT_ID":"2026-013G","EPOCH":"2026-09-12T02:11:20.662368","MEAN_MOTION":13.29330812,"ECCENTRICITY":0.00008659,"INCLINATION":50.0048,"RA_OF_ASC_NODE":43.7141,"ARG_OF_PERICENTER":76.595,"MEAN_ANOMALY":283.5019,"EPHEMERIS_TYPE":0,"CLASSIFICATION_TYPE":"U","NORAD_CAT_ID":67528,"ELEMENT_SET_NO":999,"REV_AT_EPOCH":3161,"BSTAR":0.000044937571,"MEAN_MOTION_DOT":-0.00000103,"MEAN_MOTION_DDOT":0},{"OBJECT_NAME":"HULIANWANG DIGUI-153","OBJECT_ID":"2026-013H","EPOCH":"2026-09-12T03:47:57.426720","MEAN_MOTION":13.29327432,"ECCENTRICITY":0.00009283,"INCLINATION":50.0049,"RA_OF_ASC_NODE":43.4066,"ARG_OF_PERICENTER":77.4184,"MEAN_ANOMALY":282.6792,"EPHEMERIS_TYPE":0,"CLASSIFICATION_TYPE":"U","NORAD_CAT_ID":67529,"ELEMENT_SET_NO":999,"REV_AT_EPOCH":3161,"BSTAR":0.000033140945,"MEAN_MOTION_DOT":-0.00000109,"MEAN_MOTION_DDOT":0},{"OBJECT_NAME":"HULIANWANG DIGUI-154","OBJECT_ID":"2026-013J","EPOCH":"2026-09-11T16:46:03.358272","MEAN_MOTION":13.2932917,"ECCENTRICITY":0.00008717,"INCLINATION":50.0072,"RA_OF_ASC_NODE":45.0292,"ARG_OF_PERICENTER":75.5563,"MEAN_ANOMALY":284.5406,"EPHEMERIS_TYPE":0,"CLASSIFICATION_TYPE":"U","NORAD_CAT_ID":67530,"ELEMENT_SET_NO":999,"REV_AT_EPOCH":3155,"BSTAR":0.000050731559,"MEAN_MOTION_DOT":-0.00000101,"MEAN_MOTION_DDOT":0},{"OBJECT_NAME":"HULIANWANG DIGUI-155","OBJECT_ID":"2026-047A","EPOCH":"2026-09-11T20:03:28.899360","MEAN_MOTION":13.29329404,"ECCENTRICITY":0.0001247,"INCLINATION":50.0022,"RA_OF_ASC_NODE":105.6107,"ARG_OF_PERICENTER":57.0953,"MEAN_ANOMALY":303.0039,"EPHEMERIS_TYPE":0,"CLASSIFICATION_TYPE":"U","NORAD_CAT_ID":68129,"ELEMENT_SET_NO":999,"REV_AT_EPOCH":2459,"BSTAR":0.000093335,"MEAN_MOTION_DOT":-8.1e-7,"MEAN_MOTION_DDOT":0},{"OBJECT_NAME":"HULIANWANG DIGUI-156","OBJECT_ID":"2026-047B","EPOCH":"2026-09-10T07:46:29.633376","MEAN_MOTION":13.29325981,"ECCENTRICITY":0.0001239,"INCLINATION":50.0023,"RA_OF_ASC_NODE":110.9632,"ARG_OF_PERICENTER":55.2654,"MEAN_ANOMALY":304.8335,"EPHEMERIS_TYPE":0,"CLASSIFICATION_TYPE":"U","NORAD_CAT_ID":68130,"ELEMENT_SET_NO":999,"REV_AT_EPOCH":2438,"BSTAR":0.000095652,"MEAN_MOTION_DOT":-8e-7,"MEAN_MOTION_DDOT":0},{"OBJECT_NAME":"HULIANWANG DIGUI-157","OBJECT_ID":"2026-047C","EPOCH":"2026-09-12T06:29:13.208928","MEAN_MOTION":13.29325249,"ECCENTRICITY":0.00011999,"INCLINATION":49.9991,"RA_OF_ASC_NODE":103.8672,"ARG_OF_PERICENTER":60.9146,"MEAN_ANOMALY":299.1846,"EPHEMERIS_TYPE":0,"CLASSIFICATION_TYPE":"U","NORAD_CAT_ID":68131,"ELEMENT_SET_NO":999,"REV_AT_EPOCH":2465,"BSTAR":0.000085575505,"MEAN_MOTION_DOT":-8.4e-7,"MEAN_MOTION_DDOT":0},{"OBJECT_NAME":"HULIANWANG DIGUI-158","OBJECT_ID":"2026-047D","EPOCH":"2026-09-12T06:17:07.431648","MEAN_MOTION":13.29327988,"ECCENTRICITY":0.00012573,"INCLINATION":50.0038,"RA_OF_ASC_NODE":103.8916,"ARG_OF_PERICENTER":57.2453,"MEAN_ANOMALY":302.854,"EPHEMERIS_TYPE":0,"CLASSIFICATION_TYPE":"U","NORAD_CAT_ID":68132,"ELEMENT_SET_NO":999,"REV_AT_EPOCH":2464,"BSTAR":0.000092358224,"MEAN_MOTION_DOT":-8.1e-7,"MEAN_MOTION_DDOT":0},{"OBJECT_NAME":"HULIANWANG DIGUI-159","OBJECT_ID":"2026-047E","EPOCH":"2026-09-12T06:05:13.288992","MEAN_MOTION":13.29324085,"ECCENTRICITY":0.0001234,"INCLINATION":50.0009,"RA_OF_ASC_NODE":103.8032,"ARG_OF_PERICENTER":53.908,"MEAN_ANOMALY":306.1906,"EPHEMERIS_TYPE":0,"CLASSIFICATION_TYPE":"U","NORAD_CAT_ID":68133,"ELEMENT_SET_NO":999,"REV_AT_EPOCH":2465,"BSTAR":0.000088777179,"MEAN_MOTION_DOT":-8.3e-7,"MEAN_MOTION_DDOT":0},{"OBJECT_NAME":"HULIANWANG DIGUI-160","OBJECT_ID":"2026-047F","EPOCH":"2026-09-12T00:16:05.107008","MEAN_MOTION":13.29329469,"ECCENTRICITY":0.00011465,"INCLINATION":50.0064,"RA_OF_ASC_NODE":104.6096,"ARG_OF_PERICENTER":43.5703,"MEAN_ANOMALY":316.5259,"EPHEMERIS_TYPE":0,"CLASSIFICATION_TYPE":"U","NORAD_CAT_ID":68134,"ELEMENT_SET_NO":999,"REV_AT_EPOCH":2461,"BSTAR":0.000099046301,"MEAN_MOTION_DOT":-7.8e-7,"MEAN_MOTION_DDOT":0},{"OBJECT_NAME":"HULIANWANG DIGUI-161","OBJECT_ID":"2026-047G","EPOCH":"2026-09-11T22:39:55.313280","MEAN_MOTION":13.29328556,"ECCENTRICITY":0.00011773,"INCLINATION":50.0085,"RA_OF_ASC_NODE":104.9522,"ARG_OF_PERICENTER":55.173,"MEAN_ANOMALY":304.9253,"EPHEMERIS_TYPE":0,"CLASSIFICATION_TYPE":"U","NORAD_CAT_ID":68135,"ELEMENT_SET_NO":999,"REV_AT_EPOCH":2461,"BSTAR":0.00010976852,"MEAN_MOTION_DOT":-7.3e-7,"MEAN_MOTION_DDOT":0}]